Location: Wyoming Infrared Observatory
(41.0971°N, 105.9765°W)
Time: 16:44:03
(UTC-07:00)

Amateur Radio Satellites - All Passes

Search period start: 13 February 2016 16:14
Search period end: 14 February 2016 16:14
Location: Wyoming Infrared Observatory, 41.0971°N, 105.9765°W

Satellite Date Start Highest point End Downlink Frequencies (MHz)
Time Altitude Azimuth
RS-15 13 Feb 16:22:58 16:31:53 23° 11° (NNE) 16:41:02 29.354- 29.394
CUTE-I 13 Feb 16:32:09 16:36:27 26° 65° (ENE) 16:40:46 437.470
M-CUBED/EXP-1 PRIME 13 Feb 16:34:10 16:34:19 10° 262° (W) 16:34:28 437.505
AUBIESAT-1 13 Feb 16:39:35 16:40:16 10° 262° (W) 16:40:56 437.475
AIST 2 13 Feb 16:44:56 16:46:40 12° 108° (ESE) 16:48:24 435.215
Cubesat XI-IV 13 Feb 16:46:41 16:51:26 34° 67° (ENE) 16:56:12 437.490
STARS 13 Feb 16:49:51 16:53:42 31° 291° (WNW) 16:57:32 437.465
AO-85 13 Feb 16:49:56 16:53:45 20° 40° (NE) 16:57:23 145.980
Cosmos 2504 13 Feb 16:52:29 17:00:11 40° 274° (W) 17:07:25 435.465 / 435.565
CUBESAT XI-V 13 Feb 16:57:41 17:01:28 24° 94° (E) 17:05:11 437.345
BEESAT 3 13 Feb 16:58:25 17:01:59 30° 310° (NW) 17:05:33 437.485
LilacSat-2 13 Feb 17:02:42 17:06:04 30° 71° (ENE) 17:09:26 437.200
ISS 13 Feb 17:11:50 17:13:31 13° 355° (N) 17:15:13 145.825
BRITE-PL 13 Feb 17:24:51 17:30:08 42° 71° (ENE) 17:35:15 437.365/2234.400
BEESAT 2 13 Feb 17:30:45 17:34:02 23° 313° (NW) 17:37:19 435.950
DOVE 4 13 Feb 17:32:22 17:34:26 13° 63° (ENE) 17:36:29 437.250
GONETS M04 13 Feb 17:36:27 17:40:46 14° 58° (ENE) 17:45:05
HO-68 13 Feb 17:36:45 17:40:46 16° 52° (NE) 17:44:47 435.675
O/OREOS (USA 219) 13 Feb 17:38:27 17:42:43 38° 254° (WSW) 17:46:59 437.305
MOZHAYETS 4 13 Feb 17:43:42 17:46:07 14° 297° (WNW) 17:48:32
PCSat 13 Feb 17:56:05 18:00:32 25° 48° (NE) 18:04:59 145.827
GOMX 1 13 Feb 18:08:57 18:14:09 56° 74° (ENE) 18:19:07 467.674
CUTE-I 13 Feb 18:11:13 18:16:15 42° 262° (W) 18:21:19 437.470
AIST 2 13 Feb 18:20:31 18:24:38 62° 304° (NW) 18:28:47 435.215
Cubesat XI-IV 13 Feb 18:26:48 18:31:28 31° 264° (W) 18:36:12 437.490
AO-85 13 Feb 18:29:46 18:34:53 70° 241° (WSW) 18:39:30 145.980
SEEDS 13 Feb 18:32:42 18:34:44 13° 64° (ENE) 18:36:47 437.485
CUTE 1.7 + AOD 2 13 Feb 18:33:03 18:35:54 18° 66° (ENE) 18:38:46 437.475
CUBESAT XI-V 13 Feb 18:34:39 18:38:55 35° 290° (WNW) 18:43:08 437.345
RS-15 13 Feb 18:36:54 18:48:30 48° 43° (NE) 19:00:16 29.354- 29.394
LilacSat-2 13 Feb 18:37:51 18:40:27 17° 267° (W) 18:43:03 437.200
ISS 13 Feb 18:48:44 18:50:58 17° 15° (NNE) 18:53:11 145.825
BRITE-PL 13 Feb 19:03:56 19:08:40 27° 266° (W) 19:13:18 437.365/2234.400
DOVE 4 13 Feb 19:06:34 19:11:36 77° 258° (WSW) 19:16:22 437.250
CUBEBUG 2 13 Feb 19:09:55 19:12:03 14° 64° (ENE) 19:14:10 437.445
CANX-2 13 Feb 19:17:22 19:21:31 62° 74° (ENE) 19:25:43 2200.000
HO-68 13 Feb 19:20:11 19:27:20 78° 72° (ENE) 19:34:34 435.675
STRAND 1 13 Feb 19:20:51 19:26:03 80° 103° (ESE) 19:31:13 437.568
CINEMA 3 13 Feb 19:29:38 19:34:09 64° 75° (ENE) 19:38:28 145.822/145.860
GONETS M04 13 Feb 19:30:34 19:39:24 71° 80° (E) 19:48:12
PCSat 13 Feb 19:38:58 19:44:14 52° 247° (WSW) 19:49:28 145.827
COMPASS 1 13 Feb 19:43:46 19:47:52 60° 74° (ENE) 19:51:59 437.405
ZACube-1 13 Feb 19:45:03 19:47:40 16° 66° (ENE) 19:50:16 437.345
Cosmos 2499 13 Feb 19:47:21 19:55:05 40° 72° (ENE) 20:02:13 435.465 / 435.565
GOMX 1 13 Feb 19:48:52 19:52:28 18° 268° (W) 19:55:59 467.674
PRISM 13 Feb 19:50:35 19:54:40 51° 100° (E) 19:58:42 437.425
FUNcube-1 13 Feb 19:51:31 19:54:22 18° 66° (ENE) 19:57:14 145.935
SEEDS 13 Feb 20:05:53 20:09:59 54° 260° (W) 20:14:07 437.485
CUTE 1.7 + AOD 2 13 Feb 20:07:30 20:11:26 39° 262° (W) 20:15:27 437.475
AAUSAT CUBESAT 2 13 Feb 20:08:09 20:12:17 87° 257° (WSW) 20:16:29 437.432
Oscar 11 13 Feb 20:16:19 20:20:25 47° 73° (ENE) 20:24:34 145.826/435.025
ISS 13 Feb 20:24:39 20:27:53 66° 33° (NNE) 20:31:06 145.825
UWE-3 13 Feb 20:35:21 20:39:35 86° 81° (E) 20:43:45 435.000/436.395/437.385
CUBEBUG 2 13 Feb 20:44:05 20:48:16 53° 260° (W) 20:52:23 437.445
AIST 1 13 Feb 20:47:12 20:51:19 41° 78° (ENE) 20:55:22
DELFI C3 13 Feb 20:47:35 20:51:28 55° 74° (ENE) 20:55:24 145.870
RS-15 13 Feb 20:49:36 21:01:27 61° 247° (WSW) 21:13:25 29.354- 29.394
CANX-2 13 Feb 20:56:45 20:57:47 11° 271° (W) 20:58:50 2200.000
HUMSAT D 13 Feb 21:00:36 21:04:13 31° 70° (ENE) 21:07:50 437.325/437.525
STRAND 1 13 Feb 21:02:02 21:04:31 14° 301° (WNW) 21:07:01 437.568
ESTCUBE 1 13 Feb 21:09:56 21:10:39 10° 60° (ENE) 21:11:23 437.505/2401.250
CINEMA 3 13 Feb 21:10:09 21:11:38 11° 269° (W) 21:13:07 145.822/145.860
HO-68 13 Feb 21:10:59 21:15:45 19° 269° (W) 21:20:35 435.675
TIGRISAT 13 Feb 21:17:47 21:18:27 10° 90° (E) 21:19:08 435.000
ZACube-1 13 Feb 21:19:41 21:23:39 41° 262° (W) 21:27:36 437.345
COMPASS 1 13 Feb 21:22:41 21:23:50 11° 271° (W) 21:24:58 437.405
FUNcube-1 13 Feb 21:26:31 21:30:22 36° 262° (W) 21:34:14 145.935
PRISM 13 Feb 21:27:20 21:29:34 14° 297° (WNW) 21:31:48 437.425
GONETS M04 13 Feb 21:28:44 21:35:20 25° 279° (W) 21:41:58
Cosmos 2499 13 Feb 21:40:38 21:48:08 41° 274° (W) 21:55:08 435.465 / 435.565
50 SAT 13 Feb 21:42:51 21:45:34 20° 68° (ENE) 21:48:18 437.505
VELOX 1 13 Feb 21:46:14 21:49:38 22° 66° (ENE) 21:53:04 145.980
UKube-1 13 Feb 21:51:50 21:55:12 22° 66° (ENE) 21:58:35 .
Oscar 11 13 Feb 21:54:20 21:56:49 15° 269° (W) 21:59:18 145.826/435.025
UNISAT 6 13 Feb 22:01:12 22:05:13 34° 97° (E) 22:09:18 437.425
ISS 13 Feb 22:02:16 22:03:57 14° 230° (SW) 22:05:38 145.825
AISAT 13 Feb 22:03:01 22:07:03 34° 69° (ENE) 22:11:03 437.250
CUBEBUG 1 13 Feb 22:09:47 22:13:42 31° 69° (ENE) 22:17:37 437.445
DX 1 13 Feb 22:10:59 22:15:06 42° 71° (ENE) 22:19:15 434.975-435.025
DELFI C3 13 Feb 22:25:39 22:26:44 11° 270° (W) 22:27:49 145.870
AIST 1 13 Feb 22:25:55 22:28:32 16° 274° (W) 22:31:08
HUMSAT D 13 Feb 22:36:55 22:39:55 20° 266° (W) 22:42:56 437.325/437.525
ESTCUBE 1 13 Feb 22:42:13 22:46:45 86° 253° (WSW) 22:51:20 437.505/2401.250
PHONESAT 2.4 13 Feb 22:45:26 22:48:10 24° 154° (SSE) 22:50:53 2401.200-2431.200
ANTELSAT 13 Feb 22:45:54 22:50:17 76° 284° (WNW) 22:54:45 437.575/2403.000
TIGRISAT 13 Feb 22:51:13 22:55:34 70° 285° (WNW) 23:00:01 435.000
POLYITAN 1 13 Feb 22:57:03 23:00:51 32° 97° (E) 23:04:39 437.675
QB50P2 13 Feb 22:57:27 23:01:18 34° 98° (E) 23:05:08 145.880/145.840
RS-15 13 Feb 23:07:43 23:11:15 12° 267° (W) 23:14:49 29.354- 29.394
50 SAT 13 Feb 23:16:15 23:19:25 26° 264° (W) 23:22:37 437.505
TISAT 1 13 Feb 23:20:44 23:24:08 24° 68° (ENE) 23:27:31 437.305
VELOX 1 13 Feb 23:21:48 23:25:54 36° 262° (W) 23:30:02 145.980
POPSAT HIP 1 13 Feb 23:25:46 23:29:58 69° 102° (ESE) 23:34:08 437.405
DUCHIFAT 1 13 Feb 23:26:56 23:31:06 66° 101° (E) 23:35:16 145.980
UKube-1 13 Feb 23:27:09 23:31:04 33° 262° (W) 23:35:00 .
NANOSAT C BR1 13 Feb 23:27:34 23:31:46 71° 101° (ESE) 23:35:56 145.865
SPROUT 13 Feb 23:28:05 23:32:22 80° 75° (ENE) 23:36:40 437.525
QB50P1 13 Feb 23:37:58 23:42:11 85° 284° (WNW) 23:46:23 145.935-145.965
DANDE 13 Feb 23:38:17 23:38:30 10° 74° (ENE) 23:38:42 436.750
UNISAT 6 13 Feb 23:38:23 23:41:45 22° 293° (WNW) 23:45:10 437.425
BEESAT 3 13 Feb 23:38:47 23:41:27 17° 44° (NE) 23:44:07 437.485
AISAT 13 Feb 23:40:04 23:43:34 22° 265° (W) 23:47:06 437.250
CUBEBUG 1 13 Feb 23:46:25 23:50:00 24° 265° (W) 23:53:35 437.445
DX 1 13 Feb 23:48:33 23:51:28 17° 267° (W) 23:54:25 434.975-435.025
SWISSCUBE 13 Feb 23:55:15 23:57:38 14° 61° (ENE) 00:00:01 437.505
CUSAT 1 14 Feb 00:01:42 00:08:22 29° 86° (E) 00:14:51 437.405
BUGSAT 1 14 Feb 00:09:13 00:13:15 78° 285° (WNW) 00:17:15 437.445
BEESAT 2 14 Feb 00:10:56 00:14:08 22° 47° (NE) 00:17:18 435.950
PHONESAT 2.4 14 Feb 00:21:52 00:25:08 69° 170° (S) 00:28:24 2401.200-2431.200
Cosmos 2491 14 Feb 00:22:12 00:29:00 24° 65° (ENE) 00:35:46 435.465 / 435.565
ITUPSAT 1 14 Feb 00:32:34 00:36:36 28° 67° (ENE) 00:40:40 437.325
POLYITAN 1 14 Feb 00:33:18 00:36:29 21° 293° (WNW) 00:39:39 437.675
QB50P2 14 Feb 00:33:46 00:36:54 20° 293° (WNW) 00:40:00 145.880/145.840
BEESAT 14 Feb 00:37:47 00:41:59 32° 68° (ENE) 00:46:12 436.000
TISAT 1 14 Feb 00:56:02 00:59:41 28° 264° (W) 01:03:21 437.305
POPSAT HIP 1 14 Feb 01:04:00 01:05:11 11° 298° (WNW) 01:06:21 437.405
DUCHIFAT 1 14 Feb 01:04:56 01:06:16 11° 298° (WNW) 01:07:37 145.980
AIST 2 14 Feb 01:05:32 01:06:57 11° 38° (NE) 01:08:22 435.215
NANOSAT C BR1 14 Feb 01:05:56 01:06:55 11° 298° (WNW) 01:07:55 145.865
JAS-2 14 Feb 01:06:26 01:11:09 29° 94° (E) 01:15:37 435.910
DANDE 14 Feb 01:11:53 01:19:39 55° 92° (E) 01:27:50 436.750
YUBILEINY 14 Feb 01:12:25 01:18:05 19° 78° (ENE) 01:23:44 435.215
BEESAT 3 14 Feb 01:15:39 01:19:30 51° 242° (WSW) 01:23:18 437.485
Oscar 19 14 Feb 01:16:53 01:21:54 52° 100° (E) 01:26:53 437.125/150
SWISSCUBE 14 Feb 01:30:06 01:34:50 70° 258° (WSW) 01:39:38 437.505
CUSAT 1 14 Feb 01:42:08 01:50:11 64° 283° (WNW) 01:57:55 437.405
BEESAT 2 14 Feb 01:48:28 01:52:07 35° 244° (WSW) 01:55:44 435.950
PHONESAT 2.4 14 Feb 01:59:04 02:02:20 75° 187° (S) 02:05:37 2401.200-2431.200
AO-7 14 Feb 02:06:30 02:08:43 11° 86° (E) 02:10:57 29.400- 29.500
ITUPSAT 1 14 Feb 02:10:08 02:14:21 31° 263° (W) 02:18:37 437.325
STARS 14 Feb 02:10:42 02:14:02 22° 66° (ENE) 02:17:22 437.465
BEESAT 14 Feb 02:15:44 02:19:45 27° 264° (W) 02:23:48 436.000
Cosmos 2491 14 Feb 02:17:58 02:26:42 74° 266° (W) 02:35:27 435.465 / 435.565
Gurwin Techsat 1B 14 Feb 02:25:01 02:30:23 86° 104° (ESE) 02:35:42 435.225
ITAMSAT 1 14 Feb 02:35:52 02:41:02 56° 101° (E) 02:46:09 435.822/435.867
KKS-1 14 Feb 02:38:56 02:43:23 79° 75° (ENE) 02:47:51 437.445
AIST 2 14 Feb 02:41:59 02:46:09 81° 59° (ENE) 02:50:15 435.215
JAS-2 14 Feb 02:51:25 02:56:18 33° 294° (WNW) 03:00:54 435.910
DANDE 14 Feb 02:55:32 03:02:55 36° 291° (WNW) 03:10:33 436.750
Oscar 19 14 Feb 02:57:12 03:00:49 20° 297° (WNW) 03:04:25 437.125/150
YUBILEINY 14 Feb 03:04:51 03:13:39 86° 279° (W) 03:22:33 435.215
MOZHAYETS 4 14 Feb 03:06:26 03:10:55 58° 74° (ENE) 03:15:27
CUSAT 1 14 Feb 03:30:02 03:33:47 14° 301° (WNW) 03:37:28 437.405
Cosmos 2504 14 Feb 03:36:09 03:43:49 37° 85° (E) 03:51:41 435.465 / 435.565
PHONESAT 2.4 14 Feb 03:36:27 03:39:22 29° 203° (SSW) 03:42:16 2401.200-2431.200
SO-50 14 Feb 03:41:07 03:45:58 67° 120° (ESE) 03:50:54 436.795
STARS 14 Feb 03:46:10 03:50:11 35° 262° (W) 03:54:14 437.465
AO-7 14 Feb 03:54:38 04:02:57 68° 105° (ESE) 04:11:11 29.400- 29.500
HORYU 2 14 Feb 03:57:42 04:01:38 30° 97° (E) 04:05:32 437.375
CUBESAT XI-V 14 Feb 04:01:01 04:04:45 24° 67° (ENE) 04:08:29 437.345
Gurwin Techsat 1B 14 Feb 04:07:07 04:09:34 13° 301° (WNW) 04:12:01 435.225
M-CUBED/EXP-1 PRIME 14 Feb 04:09:34 04:12:46 33° 104° (ESE) 04:16:10 437.505
AUBIESAT-1 14 Feb 04:15:04 04:18:17 32° 104° (ESE) 04:21:41 437.475
ITAMSAT 1 14 Feb 04:16:24 04:20:03 19° 298° (WNW) 04:23:41 435.822/435.867
Cosmos 2491 14 Feb 04:18:17 04:21:54 13° 286° (WNW) 04:25:32 435.465 / 435.565
MOZHAYETS 4 14 Feb 04:46:14 04:48:28 13° 270° (W) 04:50:43
STRAND 1 14 Feb 05:00:24 05:03:10 15° 60° (ENE) 05:05:58 437.568
Cubesat XI-IV 14 Feb 05:05:32 05:07:58 13° 89° (E) 05:10:24 437.490
YUBILEINY 14 Feb 05:06:14 05:11:51 18° 299° (WNW) 05:17:32 435.215
SO-50 14 Feb 05:23:17 05:26:57 20° 318° (NW) 05:30:38 436.795
Cosmos 2504 14 Feb 05:28:31 05:36:54 51° 285° (WNW) 05:45:32 435.465 / 435.565
BRITE-PL 14 Feb 05:33:45 05:34:05 10° 87° (E) 05:34:25 437.365/2234.400
HORYU 2 14 Feb 05:34:25 05:38:05 26° 293° (WNW) 05:41:46 437.375
CUBESAT XI-V 14 Feb 05:37:36 05:41:55 36° 263° (W) 05:46:17 437.345
M-CUBED/EXP-1 PRIME 14 Feb 05:45:04 05:47:13 16° 297° (WNW) 05:49:28 437.505
AO-7 14 Feb 05:48:17 05:55:06 29° 304° (NW) 06:01:53 29.400- 29.500
AUBIESAT-1 14 Feb 05:50:21 05:52:41 17° 297° (WNW) 05:55:05 437.475
LilacSat-2 14 Feb 06:10:01 06:13:41 46° 99° (E) 06:17:20 437.200
O/OREOS (USA 219) 14 Feb 06:12:04 06:15:37 23° 102° (ESE) 06:19:11 437.305
GOMX 1 14 Feb 06:13:07 06:15:07 13° 90° (E) 06:17:06 467.674
CUTE-I 14 Feb 06:27:53 06:33:18 78° 103° (ESE) 06:38:41 437.470
STRAND 1 14 Feb 06:36:37 06:41:43 73° 258° (WSW) 06:46:52 437.568
PRISM 14 Feb 06:39:59 06:43:48 36° 70° (ENE) 06:47:40 437.425
GONETS M04 14 Feb 06:40:03 06:44:23 15° 75° (ENE) 06:48:44
Cubesat XI-IV 14 Feb 06:43:13 06:48:37 78° 286° (WNW) 06:54:00 437.490
HO-68 14 Feb 06:50:39 06:54:03 14° 88° (E) 06:57:24 435.675
CANX-2 14 Feb 07:04:56 07:06:09 11° 89° (E) 07:07:21 2200.000
DOVE 4 14 Feb 07:06:22 07:09:51 25° 95° (E) 07:13:17 437.250
BRITE-PL 14 Feb 07:08:39 07:13:14 69° 286° (WNW) 07:17:29 437.365/2234.400
CINEMA 3 14 Feb 07:25:50 07:27:57 14° 91° (E) 07:30:05 145.822/145.860
LilacSat-2 14 Feb 07:45:57 07:47:36 12° 295° (WNW) 07:49:14 437.200
GOMX 1 14 Feb 07:49:26 07:53:37 49° 287° (WNW) 07:57:38 467.674
SEEDS 14 Feb 07:50:20 07:53:49 24° 94° (E) 07:57:17 437.485
O/OREOS (USA 219) 14 Feb 07:50:46 07:54:49 33° 299° (WNW) 07:58:56 437.305
AAUSAT CUBESAT 2 14 Feb 07:52:01 07:54:27 15° 92° (E) 07:56:51 437.432
CUTE 1.7 + AOD 2 14 Feb 07:52:23 07:56:19 34° 97° (E) 08:00:13 437.475
CUTE-I 14 Feb 08:09:44 08:12:40 15° 300° (WNW) 08:15:36 437.470
PRISM 14 Feb 08:16:21 08:19:15 18° 266° (W) 08:22:11 437.425
Cosmos 2499 14 Feb 08:22:46 08:30:24 35° 84° (E) 08:38:05 435.465 / 435.565
UWE-3 14 Feb 08:25:53 08:28:40 17° 93° (E) 08:31:28 435.000/436.395/437.385
Cubesat XI-IV 14 Feb 08:26:23 08:27:47 11° 303° (WNW) 08:29:11 437.490
GONETS M04 14 Feb 08:31:01 08:39:41 81° 95° (E) 08:48:27
CUBEBUG 2 14 Feb 08:34:54 08:38:37 29° 96° (E) 08:42:23 437.445
HO-68 14 Feb 08:35:29 08:42:45 83° 106° (ESE) 08:49:56 435.675
CANX-2 14 Feb 08:38:09 08:42:25 63° 285° (WNW) 08:46:39 2200.000
PCSat 14 Feb 08:38:43 08:42:35 20° 106° (ESE) 08:46:28 145.827
AO-85 14 Feb 08:42:58 08:48:01 45° 115° (ESE) 08:53:14 145.980
DOVE 4 14 Feb 08:44:05 08:47:31 25° 292° (WNW) 08:50:55 437.250
UNISAT 6 14 Feb 09:00:20 09:04:03 29° 69° (ENE) 09:07:45 437.425
CINEMA 3 14 Feb 09:01:22 09:05:22 47° 287° (WNW) 09:09:26 145.822/145.860
COMPASS 1 14 Feb 09:02:10 09:06:23 70° 285° (WNW) 09:10:35 437.405
RS-15 14 Feb 09:04:02 09:12:00 23° 100° (E) 09:20:11 29.354- 29.394
ZACube-1 14 Feb 09:07:45 09:11:38 34° 97° (E) 09:15:35 437.345
FUNcube-1 14 Feb 09:14:06 09:18:04 38° 98° (E) 09:22:07 145.935
AIST 1 14 Feb 09:16:44 09:20:19 25° 89° (E) 09:23:55
SEEDS 14 Feb 09:25:50 09:29:30 29° 291° (WNW) 09:33:10 437.485
AAUSAT CUBESAT 2 14 Feb 09:26:09 09:30:10 45° 287° (WNW) 09:34:11 437.432
CUTE 1.7 + AOD 2 14 Feb 09:28:42 09:31:57 21° 293° (WNW) 09:35:12 437.475
Oscar 11 14 Feb 09:39:19 09:43:42 82° 282° (WNW) 09:48:02 145.826/435.025
ANTELSAT 14 Feb 09:44:35 09:48:52 88° 255° (WSW) 09:53:10 437.575/2403.000
TIGRISAT 14 Feb 09:49:43 09:54:01 81° 259° (W) 09:58:17 435.000
POLYITAN 1 14 Feb 09:49:57 09:53:24 25° 68° (ENE) 09:56:51 437.675
QB50P2 14 Feb 09:50:16 09:53:47 26° 69° (ENE) 09:57:18 145.880/145.840
DELFI C3 14 Feb 10:00:21 10:04:25 85° 283° (WNW) 10:08:28 145.870
UWE-3 14 Feb 10:01:18 10:05:17 41° 288° (WNW) 10:09:22 435.000/436.395/437.385
CUBEBUG 2 14 Feb 10:11:44 10:15:08 24° 291° (WNW) 10:18:35 437.445
Cosmos 2499 14 Feb 10:14:35 10:23:08 54° 284° (WNW) 10:31:48 435.465 / 435.565
POPSAT HIP 1 14 Feb 10:18:01 10:22:06 49° 73° (ENE) 10:26:11 437.405
DUCHIFAT 1 14 Feb 10:18:39 10:22:41 47° 73° (ENE) 10:26:43 145.980
HUMSAT D 14 Feb 10:18:59 10:23:09 62° 101° (E) 10:27:21 437.325/437.525
NANOSAT C BR1 14 Feb 10:19:29 10:23:33 50° 73° (ENE) 10:27:39 145.865
PCSat 14 Feb 10:20:12 10:25:30 56° 303° (WNW) 10:30:53 145.827
AO-85 14 Feb 10:23:55 10:28:44 31° 314° (NW) 10:33:37 145.980
HO-68 14 Feb 10:24:38 10:29:36 21° 304° (NW) 10:34:34 435.675
QB50P1 14 Feb 10:30:02 10:34:14 70° 75° (ENE) 10:38:27 145.935-145.965
GONETS M04 14 Feb 10:31:15 10:37:34 22° 296° (WNW) 10:43:58
SO-50 14 Feb 10:34:35 10:36:07 11° 33° (NNE) 10:37:38 436.795
ESTCUBE 1 14 Feb 10:35:42 10:39:04 20° 93° (E) 10:42:24 437.505/2401.250
UNISAT 6 14 Feb 10:37:21 10:40:47 23° 265° (W) 10:44:12 437.425
CUSAT 1 14 Feb 10:41:42 10:43:15 11° 56° (ENE) 10:44:42 437.405
ZACube-1 14 Feb 10:44:32 10:47:44 21° 292° (WNW) 10:51:00 437.345
50 SAT 14 Feb 10:47:25 10:50:39 26° 96° (E) 10:53:53 437.505
FUNcube-1 14 Feb 10:51:04 10:54:05 19° 293° (WNW) 10:57:07 145.935
AIST 1 14 Feb 10:54:04 10:57:49 27° 285° (WNW) 11:01:35
BUGSAT 1 14 Feb 10:58:27 11:02:37 70° 75° (ENE) 11:06:44 437.445
Oscar 19 14 Feb 11:00:02 11:00:13 10° 57° (ENE) 11:00:24 437.125/150
RS-15 14 Feb 11:11:33 11:22:43 88° 301° (WNW) 11:34:33 29.354- 29.394
VELOX 1 14 Feb 11:11:46 11:15:57 41° 99° (E) 11:20:06 145.980
UKube-1 14 Feb 11:14:03 11:18:06 38° 99° (E) 11:22:07 .
SPROUT 14 Feb 11:15:59 11:18:08 14° 91° (E) 11:20:17 437.525
JAS-2 14 Feb 11:18:53 11:23:36 19° 60° (ENE) 11:28:02 435.910
POLYITAN 1 14 Feb 11:25:31 11:29:07 27° 264° (W) 11:32:44 437.675
QB50P2 14 Feb 11:25:58 11:29:31 26° 264° (W) 11:33:05 145.880/145.840
AISAT 14 Feb 11:29:15 11:33:39 68° 103° (ESE) 11:38:00 437.250
CUBEBUG 1 14 Feb 11:34:07 11:38:27 63° 101° (E) 11:42:43 437.445
DX 1 14 Feb 11:35:01 11:39:23 81° 101° (E) 11:43:43 434.975-435.025
DANDE 14 Feb 11:55:14 12:01:09 35° 68° (ENE) 12:05:42 436.750
POPSAT HIP 1 14 Feb 11:56:01 11:58:10 14° 269° (W) 12:00:18 437.405
DUCHIFAT 1 14 Feb 11:56:21 11:58:38 14° 268° (W) 12:00:57 145.980
HUMSAT D 14 Feb 11:56:38 11:58:18 12° 297° (WNW) 11:59:58 437.325/437.525
NANOSAT C BR1 14 Feb 11:57:31 11:59:35 13° 269° (W) 12:01:40 145.865
PCSat 14 Feb 12:08:26 12:10:09 11° 324° (NW) 12:11:51 145.827
Gurwin Techsat 1B 14 Feb 12:08:27 12:11:57 18° 62° (ENE) 12:15:27 435.225
ESTCUBE 1 14 Feb 12:11:47 12:16:00 38° 289° (WNW) 12:20:11 437.505/2401.250
SO-50 14 Feb 12:12:56 12:17:42 57° 54° (NE) 12:22:18 436.795
Cosmos 2499 14 Feb 12:16:52 12:18:32 11° 306° (NW) 12:20:12 435.465 / 435.565
ITAMSAT 1 14 Feb 12:18:37 12:20:14 11° 57° (ENE) 12:21:51 435.822/435.867
CUSAT 1 14 Feb 12:21:28 12:26:42 72° 264° (W) 12:30:34 437.405
50 SAT 14 Feb 12:21:37 12:24:31 21° 292° (WNW) 12:27:26 437.505
Oscar 19 14 Feb 12:33:28 12:38:38 76° 75° (ENE) 12:43:49 437.125/150
TISAT 1 14 Feb 12:39:33 12:43:32 41° 99° (E) 12:47:27 437.305
VELOX 1 14 Feb 12:49:03 12:52:07 19° 295° (WNW) 12:55:12 145.980
SPROUT 14 Feb 12:50:16 12:54:24 50° 287° (WNW) 12:58:31 437.525
UKube-1 14 Feb 12:50:49 12:53:53 19° 295° (WNW) 12:56:56 .
JAS-2 14 Feb 13:00:23 13:07:57 87° 256° (WSW) 13:14:46 435.910
AO-7 14 Feb 13:04:04 13:09:50 21° 51° (NE) 13:15:36 29.400- 29.500
ISS 14 Feb 13:04:42 13:07:10 20° 133° (SE) 13:09:37 145.825
AISAT 14 Feb 13:07:50 13:09:34 12° 298° (WNW) 13:11:16 437.250
CUBEBUG 1 14 Feb 13:12:18 13:14:12 13° 298° (WNW) 13:16:06 437.445
DX 1 14 Feb 13:14:23 13:14:55 10° 300° (WNW) 13:15:26 434.975-435.025
YUBILEINY 14 Feb 13:15:23 13:23:54 48° 75° (ENE) 13:32:18 435.215
Cosmos 2491 14 Feb 13:24:17 13:31:08 27° 82° (E) 13:37:59 435.465 / 435.565
RS-15 14 Feb 13:27:04 13:36:59 33° 329° (NNW) 13:47:24 29.354- 29.394
SWISSCUBE 14 Feb 13:30:42 13:34:55 30° 96° (E) 13:39:07 437.505
Cosmos 2504 14 Feb 13:31:25 13:34:39 12° 55° (NE) 13:37:47 435.465 / 435.565
DANDE 14 Feb 13:38:35 13:43:51 29° 276° (W) 13:48:02 436.750
Gurwin Techsat 1B 14 Feb 13:46:08 13:51:23 62° 259° (WSW) 13:56:40 435.225
ITAMSAT 1 14 Feb 13:53:40 13:58:52 84° 76° (ENE) 14:04:07 435.822/435.867
SO-50 14 Feb 13:54:40 13:57:41 17° 251° (WSW) 14:00:39 436.795
ITUPSAT 1 14 Feb 14:09:56 14:14:45 67° 102° (ESE) 14:19:32 437.325
BEESAT 14 Feb 14:14:54 14:19:43 77° 103° (ESE) 14:24:31 436.000
TISAT 1 14 Feb 14:16:11 14:18:53 17° 295° (WNW) 14:21:33 437.305
Oscar 19 14 Feb 14:16:20 14:18:30 13° 271° (W) 14:20:41 437.125/150
KKS-1 14 Feb 14:31:24 14:33:57 15° 92° (E) 14:36:30 437.445
ISS 14 Feb 14:40:14 14:43:23 46° 329° (NNW) 14:46:32 145.825
JAS-2 14 Feb 14:49:29 14:53:34 15° 270° (W) 14:57:29 435.910
AO-7 14 Feb 14:53:06 15:01:29 87° 71° (ENE) 15:09:55 29.400- 29.500
HORYU 2 14 Feb 14:55:51 14:59:36 28° 68° (ENE) 15:03:21 437.375
M-CUBED/EXP-1 PRIME 14 Feb 14:57:00 15:00:21 42° 69° (ENE) 15:03:32 437.505
AUBIESAT-1 14 Feb 15:02:03 15:05:20 39° 68° (ENE) 15:08:30 437.475
MOZHAYETS 4 14 Feb 15:03:02 15:05:31 14° 91° (E) 15:08:00
BEESAT 3 14 Feb 15:06:58 15:10:17 26° 113° (ESE) 15:13:37 437.485
SWISSCUBE 14 Feb 15:08:30 15:12:39 29° 293° (WNW) 15:16:46 437.505
YUBILEINY 14 Feb 15:12:35 15:20:26 37° 275° (W) 15:28:13 435.215
Cosmos 2491 14 Feb 15:18:37 15:27:14 64° 281° (W) 15:35:54 435.465 / 435.565
Cosmos 2504 14 Feb 15:21:34 15:30:04 65° 79° (ENE) 15:37:53 435.465 / 435.565
STARS 14 Feb 15:35:20 15:39:27 39° 99° (E) 15:43:33 437.465
ITAMSAT 1 14 Feb 15:37:28 15:38:58 11° 271° (W) 15:40:28 435.822/435.867
BEESAT 2 14 Feb 15:40:21 15:44:05 38° 116° (ESE) 15:47:49 435.950
RS-15 14 Feb 15:46:04 15:54:42 22° 4° (N) 16:03:34 29.354- 29.394
ITUPSAT 1 14 Feb 15:49:27 15:52:01 15° 299° (WNW) 15:54:35 437.325
BEESAT 14 Feb 15:54:49 15:56:51 13° 300° (WNW) 15:58:54 436.000
